Home > Weather > Chalon-sur-Saône > Past weeks

Flag for France Past Weather in Chalon-sur-Saône, Burgundy, France — Yesterday and Last 2 Weeks

Now
64 °F

Clear.


Feels Like: 64 °F
Forecast: 58 / 78 °F
Wind: 3 mph from Northeast

Location: Dole Tavaux

Current Time: Jul 26, 2016 at 2:55:46 AM

Latest Report: Jul 26, 2016 at 2:30 AM


Visibility: 10 mi

Pressure: 30.12 "Hg

Humidity: 88%

Dew Point: 61 °F

Location of Chalon-sur-SaôneLocation

Past Weather in Chalon-sur-Saône — Graph

°F

Chalon-sur-Saône Temperature Yesterday

Maximum temperature yesterday: 84 °F (at 3:30 PM)
Minimum temperature yesterday: 61 °F (at 6:30 AM)
Average temperature yesterday: 74 °F

High & Low Weather Summary for the Past Weeks

 TemperatureHumidityPressure
High93 °F (Jul 19, 5:00 PM)100% (Jul 13, 1:30 AM)30.33 "Hg (Jul 13, 1:30 AM)
Low45 °F (Jul 15, 6:00 AM)23% (Jul 19, 5:00 PM)29.92 "Hg (Jul 11, 1:00 AM)
Average69 °F72%30.10 "Hg
* Reported Jul 11 1:00 AM — Jul 26 1:30 AM, Chalon-sur-Saône, Weather by CustomWeather, © 2016

Note: Actual official high and low records may vary slightly from our data, if they occured in-between our weather recording intervals... More about our weather records

Advertising

Chalon-sur-Saône Weather History for the Previous 24 Hours

Scroll right to see more
 ConditionsComfort  
Time TempWeatherWind HumidityBarometerVisibility
1:30 AM
Tue, Jul 26
66 °FClear.2 mph83%30.12 "Hg10 mi
1:00 AM66 °FClear.3 mph83%30.12 "Hg10 mi
12:30 AM66 °FClear.2 mph83%30.12 "Hg10 mi
12:00 AM66 °FClear.3 mph83%30.12 "Hg10 mi
11:30 PM
Mon, Jul 25
70 °FClear.2 mph73%30.12 "Hg10 mi
11:00 PM70 °FSunny.2 mph73%30.12 "Hg10 mi
10:30 PM72 °FSunny.3 mph69%30.12 "Hg10 mi
10:00 PM73 °FSunny.5 mph61%30.12 "Hg10 mi
9:30 PM73 °FSunny.3 mph65%30.09 "Hg10 mi
9:00 PM77 °FSunny.6 mph57%30.09 "Hg10 mi
8:30 PM79 °FPassing clouds.6 mph54%30.09 "HgN/A
8:00 PM81 °FSunny.8 mph51%30.09 "Hg10 mi
7:30 PM82 °FPassing clouds.8 mph45%30.09 "HgN/A
7:00 PM82 °FSunny.9 mph42%30.09 "Hg10 mi
6:30 PM84 °FPassing clouds.8 mph43%30.09 "HgN/A
6:00 PM84 °FPassing clouds.8 mph40%30.09 "HgN/A
5:30 PM84 °FPassing clouds.7 mph40%30.09 "HgN/A
5:00 PM84 °FPassing clouds.6 mph40%30.09 "HgN/A
4:30 PM84 °FPassing clouds.7 mph43%30.09 "HgN/A
4:00 PM84 °FSunny.6 mph40%30.09 "Hg10 mi
3:30 PM84 °FPassing clouds.7 mph43%30.09 "HgN/A
3:00 PM82 °FPassing clouds.7 mph45%30.09 "HgN/A
2:30 PM82 °FSunny.6 mph42%30.12 "Hg10 mi
2:00 PM82 °FPassing clouds.8 mph42%30.12 "HgN/A
1:30 PM82 °FSunny.7 mph42%30.12 "Hg10 mi
1:00 PM81 °FPassing clouds.7 mph42%30.12 "HgN/A
12:30 PM81 °FPassing clouds.9 mph45%30.12 "HgN/A
12:00 PM79 °FPassing clouds.9 mph51%30.12 "HgN/A
11:30 AM79 °FPassing clouds.8 mph51%30.12 "HgN/A
11:00 AM79 °FPartly sunny.7 mph58%30.12 "HgN/A
10:30 AM77 °FPassing clouds.6 mph61%30.12 "HgN/A
10:00 AM75 °FSunny.3 mph69%30.12 "Hg10 mi
9:30 AM73 °FSunny.3 mph74%30.12 "Hg10 mi
9:00 AM72 °FSunny.2 mph78%30.12 "Hg10 mi
8:30 AM68 °FSunny.2 mph88%30.12 "Hg10 mi
8:00 AM66 °FClear.2 mph94%30.12 "Hg10 mi
7:30 AM64 °FClear.1 mph94%30.12 "Hg4 mi
7:00 AM63 °FFog.2 mph94%30.12 "Hg3 mi
6:30 AM61 °FFog.2 mph100%30.12 "Hg2 mi
6:00 AM63 °FFog.2 mph94%30.12 "Hg3 mi
5:30 AM63 °FLight fog.2 mph100%30.12 "Hg1 mi
5:00 AM63 °FFog.1 mph94%30.12 "Hg3 mi
4:30 AM63 °FFog.3 mph100%30.12 "Hg2 mi
4:00 AM64 °FClear.3 mph94%30.12 "Hg4 mi
3:30 AM64 °FClear.1 mph94%30.12 "Hg4 mi
3:00 AM66 °FClear.2 mph88%30.12 "Hg4 mi
2:30 AM66 °FClear.2 mph94%30.12 "Hg4 mi
2:00 AM68 °FClear.No wind88%30.12 "Hg10 mi
Weather by CustomWeather, © 2016

See weather overviewHow to use our weather pages